logo liguriameteo

Diretta Meteo Lille, Franciadomenica 10 maggio ore 20:30

Mappa
Sereno 11 °C Pioggia Foschia 24 Ore: T.min 11 T.max 18
Ponente Nord Km/h 20.3 Punto di rugiada: 10 °C Umidità: 93% Visibilità: 4 Km
Il sole sorge alle: 06:04 Il sole tramonta alle: 21:23
10 Maggio 2026 20:30 tempo osservato: Pioggia Foschia Pioggia Foschia 11 93 1010 vento: Nord N 20.3
10 Maggio 2026 20:00 tempo osservato: Pioggia Foschia Pioggia Foschia 11 93 1010 vento: Nord N 24
10 Maggio 2026 19:30 tempo osservato: Pioggia Foschia Pioggia Foschia 12 87 1010 vento: Nord N 22.2
10 Maggio 2026 19:00 tempo osservato: Pioggia Pioggia 13 81 1010 vento: Nord N 25.9
10 Maggio 2026 18:30 tempo osservato: Coperto Coperto 14 71 1010 vento: Nord N 20.3
10 Maggio 2026 18:00 tempo osservato: Sereno Sereno 15 72 1010 vento: Nord N/NO 22.2
10 Maggio 2026 17:30 tempo osservato: Coperto Coperto 16 67 1010 vento: Nord N 22.2
10 Maggio 2026 17:00 tempo osservato: Pioggia Pioggia 15 67 1010 vento: Nord N/NE 18.5
10 Maggio 2026 16:30 tempo osservato: Pioggia Pioggia 16 58 1011 vento: Nord N/NE 22.2
10 Maggio 2026 16:00 tempo osservato: Molto Nuvoloso Molto Nuvoloso 17 48 1011 vento: Nord N/NE 24
10 Maggio 2026 15:30 tempo osservato: Sereno Sereno 17 51 1011 vento: Nord NE 18.5
10 Maggio 2026 15:00 tempo osservato: Sereno Sereno 17 45 1012 vento: Nord N/NE 20.3
10 Maggio 2026 14:30 tempo osservato: Sereno Sereno 18 45 1012 vento: Nord N/NE 20.3
10 Maggio 2026 14:00 tempo osservato: Sereno Sereno 17 48 1012 vento: Nord N/NE 29.6
10 Maggio 2026 13:30 tempo osservato: Sereno Sereno 17 45 1012 vento: Nord N/NE 27.8
10 Maggio 2026 13:00 tempo osservato: Sereno Sereno 17 48 1013 vento: Nord N/NE 29.6
10 Maggio 2026 12:30 tempo osservato: Sereno Sereno 17 51 1013 vento: Nord NE 31.5
10 Maggio 2026 12:00 tempo osservato: Sereno Sereno 17 48 1013 vento: Nord N/NE 27.8
10 Maggio 2026 11:30 tempo osservato: Sereno Sereno 17 51 1013 vento: Nord N/NE 29.6
10 Maggio 2026 11:00 tempo osservato: Sereno Sereno 16 55 1013 vento: Nord NE 25.9
10 Maggio 2026 10:30 tempo osservato: Sereno Sereno 16 58 1013 vento: Nord N/NE 31.5
10 Maggio 2026 10:00 tempo osservato: Sereno Sereno 15 62 1014 vento: Nord NE 29.6
10 Maggio 2026 09:30 tempo osservato: Sereno Sereno 14 62 1014 vento: Nord NE 27.8
10 Maggio 2026 09:00 tempo osservato: Sereno Sereno 13 66 1014 vento: Nord N/NE 25.9
10 Maggio 2026 08:30 tempo osservato: Sereno Sereno 13 71 1014 vento: Nord N/NE 27.8
10 Maggio 2026 08:00 tempo osservato: Sereno Sereno 12 76 1014 vento: Nord N/NE 25.9
10 Maggio 2026 07:30 tempo osservato: Sereno Sereno 12 76 1014 vento: Nord N/NE 25.9
10 Maggio 2026 07:00 tempo osservato: Sereno Sereno 11 81 1014 vento: Nord N/NE 22.2
10 Maggio 2026 06:30 tempo osservato: Sereno Sereno 11 81 1014 vento: Nord N/NE 20.3
10 Maggio 2026 06:00 tempo osservato: Sereno Sereno 11 81 1014 vento: Nord N/NE 20.3
10 Maggio 2026 05:30 tempo osservato: Sereno Sereno 12 76 1014 vento: Nord N/NE 18.5
10 Maggio 2026 05:00 tempo osservato: Sereno Sereno 12 71 1014 vento: Nord N/NE 18.5
10 Maggio 2026 04:30 tempo osservato: Sereno Sereno 12 71 1014 vento: Nord N/NE 20.3
10 Maggio 2026 04:00 tempo osservato: Sereno Sereno 12 71 1014 vento: Nord N/NE 16.7
10 Maggio 2026 03:30 tempo osservato: Sereno Sereno 12 71 1014 vento: Nord N/NE 18.5
10 Maggio 2026 03:00 tempo osservato: Sereno Sereno 12 71 1014 vento: Nord N/NE 20.3
10 Maggio 2026 02:30 tempo osservato: Sereno Sereno 12 66 1015 vento: Nord N/NE 16.7
10 Maggio 2026 02:00 tempo osservato: Sereno Sereno 13 62 1015 vento: Nord N/NE 20.3
10 Maggio 2026 01:30 tempo osservato: Sereno Sereno 13 58 1015 vento: Nord N/NE 16.7
10 Maggio 2026 01:00 tempo osservato: Sereno Sereno 13 62 1015 vento: Nord N/NE 18.5
10 Maggio 2026 00:30 tempo osservato: Sereno Sereno 14 58 1015 vento: Nord N/NE 18.5
10 Maggio 2026 00:00 tempo osservato: Sereno Sereno 14 58 1015 vento: Nord N/NE 16.7
9 Maggio 2026 23:30 tempo osservato: Sereno Sereno 14 62 1015 vento: Nord N/NE 18.5
9 Maggio 2026 23:00 tempo osservato: Sereno Sereno 15 58 1015 vento: Nord N/NE 18.5
9 Maggio 2026 22:30 tempo osservato: Sereno Sereno 16 55 1015 vento: Nord N/NE 22.2
9 Maggio 2026 22:00 tempo osservato: Sereno Sereno 17 51 1015 vento: Nord N/NE 20.3
9 Maggio 2026 21:30 tempo osservato: Sereno Sereno 17 51 1015 vento: Nord N/NE 22.2
9 Maggio 2026 21:00 tempo osservato: Sereno Sereno 18 48 1014 vento: Nord N/NE 18.5